Warning: Javascript must be enabled to use all the features on this page!


Page Loading - Please Wait...

Click to hideNews Bulletins
* IMPORTANT: Next Generation Station Page

USGS 06730200 BOULDER CREEK AT NORTH 75TH ST. NEAR BOULDER, CO

PROVISIONAL DATA SUBJECT TO REVISION

Click to hidestation-specific text
Click for larger image

Station operated by the U.S. Geological Survey in cooperation with City of Boulder.

Current shift adjusted rating table.
What is a shift adjusted stage-discharge rating table?

Boating safety tips

This station managed by the Lakewood Field Office.

Available Parameters Available Period
  
1987-09-17  2020-10-20
2020-06-22  2020-10-20







 (7)
 

  -- or --

 


 

Summary of all available data for this site
Instantaneous-data availability statement
Discharge, cubic feet per second
TIMEJun 17Jun 18Jun 19Jun 20Jun 21Jun 22Jun 23Jun 24
00:00 MDT277A  398A  441A  433A  415A  503A  555A  410A  
00:15 MDT281A  398A  441A  439A  414A  503A  562A  415A  
00:30 MDT281A  409A  441A  439A  420A  516A  562A  415A  
00:45 MDT285A  415A  453A  445A  426A  516A  569A  410A  
01:00 MDT294A  420A  453A  445A  426A  523A  562A  410A  
01:15 MDT298A  426A  459A  451A  426A  529A  562A  415A  
01:30 MDT302A  431A  459A  451A  437A  536A  569A  415A  
01:45 MDT307A  437A  459A  451A  437A  536A  569A  415A  
02:00 MDT307A  443A  471A  463A  443A  543A  569A  415A  
02:15 MDT311A  449A  471A  463A  449A  543A  576A  410A  
02:30 MDT316A  449A  471A  469A  455A  550A  576A  421A  
02:45 MDT320A  455A  477A  463A  455A  557A  576A  415A  
03:00 MDT320A  455A  477A  469A  461A  557A  569A  421A  
03:15 MDT329A  461A  489A  469A  461A  564A  576A  421A  
03:30 MDT329A  473A  489A  475A  467A  564A  576A  421A  
03:45 MDT334A  473A  489A  481A  467A  564A  569A  421A  
04:00 MDT339A  473A  489A  475A  473A  564A  569A  421A  
04:15 MDT344A  479A  496A  481A  473A  571A  569A  421A  
04:30 MDT344A  485A  502A  475A  473A  578A  569A  421A  
04:45 MDT348A  485A  502A  481A  473A  578A  576A  421A  
05:00 MDT348A  491A  496A  481A  473A  571A  576A  421A  
05:15 MDT353A  491A  502A  475A  479A  563A  569A  427A  
05:30 MDT358A  491A  502A  475A  485A  578A  583A  427A  
05:45 MDT358A  497A  496A  481A  485A  578A  583A  421A  
06:00 MDT363A  497A  502A  481A  485A  585A  576A  421A  
06:15 MDT363A  497A  495A  475A  485A  578A  583A  415A  
06:30 MDT363A  497A  495A  481A  485A  585A  583A  421A  
06:45 MDT368A  504A  495A  481A  485A  570A  583A  421A  
07:00 MDT368A  504A  495A  481A  479A  577A  590A  421A  
07:15 MDT368A  497A  495A  475A  485A  577A  597A  415A  
07:30 MDT368A  497A  502A  475A  492A  577A  597A  421A  
07:45 MDT368A  504A  495A  475A  492A  577A  597A  415A  
08:00 MDT368A  504A  489A  468A  479A  577A  590A  410A  
08:15 MDT363A  504A  489A  475A  473A  570A  597A  415A  
08:30 MDT363A  491A  489A  468A  485A  570A  597A  415A  
08:45 MDT363A  504A  483A  475A  479A  570A  590A  410A  
09:00 MDT363A  504A  483A  468A  479A  577A  590A  410A  
09:15 MDT363A  497A  483A  468A  485A  570A  590A  415A  
09:30 MDT363A  497A  489A  468A  485A  570A  590A  410A  
09:45 MDT358A  497A  483A  462A  485A  570A  583A  410A  
10:00 MDT353A  491A  476A  462A  479A  563A  590A  404A  
10:15 MDT358A  497A  483A  462A  479A  563A  590A  404A  
10:30 MDT353A  497A  476A  450A  485A  556A  583A  399A  
10:45 MDT353A  491A  470A  456A  479A  556A  590A  393A  
11:00 MDT358A  491A  470A  456A  466A  556A  583A  388A  
11:15 MDT353A  491A  464A  450A  466A  563A  590A  388A  
11:30 MDT363A  484A  470A  444A  448A  556A  582A  388A  
11:45 MDT353A  478A  458A  444A  442A  542A  590A  382A  
12:00 MDT353A  472A  464A  444A  436A  535A  575A  377A  
12:15 MDT348A  472A  452A  450A  442A  535A  582A  377A  
12:30 MDT353A  472A  458A  444A  448A  528A  590A  377A  
12:45 MDT353A  466A  452A  444A  454A  528A  597A  377A  
13:00 MDT348A  466A  446A  444A  454A  515A  590A  372A  
13:15 MDT343A  466A  440A  438A  460A  522A  561A  372A  
13:30 MDT348A  460A  440A  444A  460A  515A  533A  367A  
13:45 MDT348A  466A  440A  444A  460A  508A  527A  367A  
14:00 MDT343A  460A  446A  438A  460A  515A  507A  362A  
14:15 MDT338A  454A  446A  438A  460A  515A  500A  362A  
14:30 MDT338A  454A  440A  438A  454A  515A  500A  351A  
14:45 MDT338A  454A  434A  432A  448A  515A  487A  351A  
15:00 MDT338A  448A  434A  432A  442A  515A  481A  351A  
15:15 MDT338A  448A  434A  432A  442A  515A  475A  346A  
15:30 MDT333A  442A  434A  427A  442A  515A  469A  346A  
15:45 MDT333A  442A  428A  432A  436A  508A  469A  346A  
16:00 MDT338A  436A  423A  426A  430A  508A  462A  346A  
16:15 MDT333A  436A  423A  421A  436A  521A  462A  341A  
16:30 MDT338A  442A  417A  415A  436A  515A  456A  341A  
16:45 MDT333A  436A  417A  421A  436A  528A  456A  341A  
17:00 MDT333A  430A  417A  415A  436A  521A  450A  337A  
17:15 MDT333A  430A  417A  415A  430A  508A  444A  337A  
17:30 MDT324A  430A  417A  409A  436A  515A  444A  337A  
17:45 MDT328A  430A  411A  409A  430A  515A  433A  337A  
18:00 MDT324A  424A  411A  404A  436A  508A  421A  332A  
18:15 MDT319A  419A  406A  409A  430A  508A  415A  332A  
18:30 MDT319A  419A  406A  409A  430A  508A  421A  327A  
18:45 MDT319A  413A  406A  404A  430A  521A  415A  327A  
19:00 MDT319A  413A  406A  404A  436A  521A  415A  327A  
19:15 MDT319A  419A  411A  404A  430A  521A  410A  327A  
19:30 MDT319A  419A  400A  398A  430A  521A  410A  322A  
19:45 MDT324A  413A  400A  398A  442A  521A  410A  322A  
20:00 MDT324A  413A  400A  398A  448A  521A  410A  322A  
20:15 MDT328A  413A  411A  382A  448A  521A  404A  322A  
20:30 MDT323A  413A  406A  387A  447A  521A  404A  322A  
20:45 MDT328A  419A  406A  382A  459A  528A  399A  322A  
21:00 MDT333A  407A  406A  382A  466A  528A  404A  318A  
21:15 MDT333A  419A  411A  382A  459A  521A  399A  318A  
21:30 MDT342A  419A  411A  387A  466A  528A  404A  318A  
21:45 MDT342A  424A  417A  387A  459A  534A  399A  318A  
22:00 MDT347A  424A  411A  398A  472A  534A  404A  313A  
22:15 MDT347A  418A  417A  393A  472A  534A  404A  313A  
22:30 MDT357A  424A  417A  393A  478A  541A  399A  313A  
22:45 MDT367A  424A  417A  393A  484A  541A  404A  313A  
23:00 MDT372A  435A  422A  398A  490A  541A  399A  308A  
23:15 MDT377A  430A  428A  398A  497A  548A  399A  313A  
23:30 MDT382A  435A  428A  403A  497A  548A  404A  313A  
23:45 MDT388A  430A  428A  403A  497A  555A  404A  313A  
COUNT9696969696969696
MAX388504502481497585597427
MIN277398400382414503399308

Explanation
  A  Approved for publication -- Processing and review completed.